| time (UTC) | temp F | wind direction | speed MPH | gust MPH | rain 1hr in | rain 24hr in | rain mn in | humidity % | barometer mb |
| 20260831080403 | 78 | 273 | 2.0 | 8.0 | 0.99 | 0.99 | 0.99 | 88 | 1004.3 |
| 20260831080303 | 78 | 355 | 2.0 | 10.0 | 0.98 | 0.98 | 0.98 | 88 | 1004.3 |
| 20260831080203 | 78 | 46 | 1.0 | 10.0 | 0.94 | 0.94 | 0.94 | 87 | 1004.4 |
| 20260831080004 | 78 | 153 | 4.0 | 10.0 | 0.90 | 0.90 | 0.90 | 87 | 1004.4 |
| 20260831075859 | 78 | 158 | 4.0 | 10.0 | 0.88 | 0.88 | 0.88 | 87 | 1004.3 |
| 20260831075803 | 78 | 190 | 4.0 | 10.0 | 0.86 | 0.86 | 0.86 | 87 | 1004.4 |
| 20260831075701 | 78 | 215 | 5.0 | 10.0 | 0.83 | 0.83 | 0.83 | 87 | 1004.3 |
| 20260831075601 | 78 | 200 | 5.0 | 10.0 | 0.81 | 0.81 | 0.81 | 87 | 1004.3 |
| 20260831075401 | 78 | 239 | 4.0 | 11.0 | 0.77 | 0.77 | 0.77 | 87 | 1004.3 |
| 20260831075301 | 79 | 242 | 5.0 | 11.0 | 0.76 | 0.76 | 0.76 | 87 | 1004.3 |
| 20260831075205 | 78 | 238 | 5.0 | 11.0 | 0.75 | 0.75 | 0.75 | 86 | 1004.3 |
| 20260831075101 | 79 | 248 | 5.0 | 12.0 | 0.74 | 0.74 | 0.74 | 86 | 1004.3 |
| 20260831075052 | 79 | 248 | 5.0 | 12.0 | 0.74 | 0.74 | 0.74 | 86 | 1004.3 |
| 20260831020605 | 83 | 89 | 2.0 | 7.0 | 0.00 | 0.00 | 0.00 | 87 | 1003.8 |
| 20260831020502 | 83 | 84 | 3.0 | 7.0 | 0.00 | 0.00 | 0.00 | 87 | 1003.9 |
| 20260831020357 | 83 | 113 | 4.0 | 7.0 | 0.00 | 0.00 | 0.00 | 87 | 1003.8 |
| 20260831020303 | 83 | 132 | 5.0 | 7.0 | 0.00 | 0.00 | 0.00 | 87 | 1003.8 |
| 20260831020202 | 83 | 115 | 4.0 | 6.0 | 0.00 | 0.00 | 0.00 | 87 | 1003.8 |
| 20260831020105 | 83 | 92 | 4.0 | 6.0 | 0.00 | 0.00 | 0.00 | 87 | 1003.8 |
| 20260831020010 | 83 | 101 | 3.0 | 6.0 | 0.00 | 0.00 | 0.00 | 87 | 1003.8 |
| 20260831015905 | 83 | 76 | 3.0 | 6.0 | 0.00 | 0.00 | 0.00 | 87 | 1003.8 |
| 20260831015705 | 83 | 88 | 2.0 | 4.0 | 0.00 | 0.00 | 0.00 | 87 | 1003.8 |
| 20260831015559 | 83 | 105 | 2.0 | 5.0 | 0.00 | 0.00 | 0.00 | 87 | 1003.8 |
| 20260831015504 | 83 | 119 | 1.0 | 5.0 | 0.00 | 0.00 | 0.00 | 87 | 1003.8 |
| 20260831015405 | 83 | 88 | 1.0 | 5.0 | 0.00 | 0.00 | 0.00 | 87 | 1003.8 |
| 20260831015203 | 83 | 5 | 1.0 | 5.0 | 0.00 | 0.00 | 0.00 | 87 | 1003.7 |
| 20260831015104 | 83 | 67 | 1.0 | 5.0 | 0.00 | 0.00 | 0.00 | 87 | 1003.8 |
| 20260831015006 | 83 | 5 | 1.0 | 5.0 | 0.00 | 0.00 | 0.00 | 87 | 1003.8 |
| 20260831014903 | 83 | 64 | 2.0 | 5.0 | 0.00 | 0.00 | 0.00 | 87 | 1003.8 |
| 20260831014759 | 83 | 61 | 2.0 | 6.0 | 0.00 | 0.00 | 0.00 | 87 | 1003.8 |
| 20260831014659 | 83 | 158 | 3.0 | 6.0 | 0.00 | 0.00 | 0.00 | 87 | 1003.8 |
| 20260831014603 | 83 | 125 | 3.0 | 6.0 | 0.00 | 0.00 | 0.00 | 87 | 1003.6 |
| 20260831014506 | 83 | 70 | 2.0 | 6.0 | 0.00 | 0.00 | 0.00 | 87 | 1003.8 |
| 20260831014358 | 83 | 110 | 2.0 | 6.0 | 0.00 | 0.00 | 0.00 | 87 | 1003.7 |
| 20260831014258 | 83 | 132 | 3.0 | 6.0 | 0.00 | 0.00 | 0.00 | 87 | 1003.7 |
| 20260831014203 | 83 | 139 | 3.0 | 6.0 | 0.00 | 0.00 | 0.00 | 87 | 1003.6 |
| 20260831014006 | 83 | 146 | 1.0 | 4.0 | 0.00 | 0.00 | 0.00 | 87 | 1003.6 |
| 20260831013904 | 83 | 169 | 1.0 | 6.0 | 0.00 | 0.00 | 0.00 | 87 | 1003.6 |
| 20260831013802 | 83 | 175 | 1.0 | 6.0 | 0.00 | 0.00 | 0.00 | 87 | 1003.7 |
| 20260831013702 | 83 | 186 | 1.0 | 6.0 | 0.00 | 0.00 | 0.00 | 87 | 1003.6 |
| 20260831013603 | 83 | 153 | 1.0 | 6.0 | 0.00 | 0.00 | 0.00 | 87 | 1003.6 |
| 20260831013507 | 83 | 173 | 1.0 | 6.0 | 0.00 | 0.00 | 0.00 | 87 | 1003.7 |
| 20260831013402 | 83 | 187 | 1.0 | 7.0 | 0.00 | 0.00 | 0.00 | 87 | 1003.7 |
| 20260831013301 | 83 | 165 | 2.0 | 7.0 | 0.00 | 0.00 | 0.00 | 87 | 1003.6 |
| 20260831013200 | 83 | 115 | 3.0 | 7.0 | 0.00 | 0.00 | 0.00 | 87 | 1003.7 |
| 20260831013001 | 83 | 91 | 2.0 | 7.0 | 0.00 | 0.00 | 0.00 | 87 | 1003.7 |
| 20260831012902 | 83 | 140 | 2.0 | 7.0 | 0.00 | 0.00 | 0.00 | 87 | 1003.7 |
| 20260831012801 | 83 | 41 | 2.0 | 7.0 | 0.00 | 0.00 | 0.00 | 87 | 1003.8 |
| 20260831012557 | 83 | 132 | 4.0 | 7.0 | 0.00 | 0.00 | 0.00 | 87 | 1003.7 |
| 20260831012507 | 83 | 111 | 2.0 | 7.0 | 0.00 | 0.00 | 0.00 | 87 | 1003.7 |
| 20260831012305 | 83 | 80 | 3.0 | 9.0 | 0.00 | 0.00 | 0.00 | 87 | 1003.7 |
| 20260831012102 | 83 | 103 | 2.0 | 9.0 | 0.00 | 0.00 | 0.00 | 87 | 1003.6 |
| 20260831012006 | 83 | 95 | 3.0 | 9.0 | 0.00 | 0.00 | 0.00 | 87 | 1003.7 |
| 20260831011904 | 83 | 92 | 4.0 | 9.0 | 0.00 | 0.00 | 0.00 | 87 | 1003.6 |
| 20260831011659 | 83 | 99 | 4.0 | 9.0 | 0.00 | 0.00 | 0.00 | 86 | 1003.6 |
| 20260831011500 | 83 | 136 | 5.0 | 9.0 | 0.00 | 0.00 | 0.00 | 86 | 1003.6 |
| 20260831011404 | 83 | 121 | 4.0 | 8.0 | 0.00 | 0.00 | 0.00 | 86 | 1003.7 |
| 20260831011303 | 83 | 91 | 3.0 | 11.0 | 0.00 | 0.00 | 0.00 | 86 | 1003.6 |
| 20260831011201 | 83 | 113 | 3.0 | 11.0 | 0.00 | 0.00 | 0.00 | 86 | 1003.6 |
| 20260831011103 | 83 | 96 | 5.0 | 11.0 | 0.00 | 0.00 | 0.00 | 86 | 1003.6 |
| 20260831011007 | 83 | 73 | 5.0 | 12.0 | 0.00 | 0.00 | 0.00 | 86 | 1003.6 |
| 20260831010900 | 83 | 126 | 4.0 | 12.0 | 0.00 | 0.00 | 0.00 | 86 | 1003.6 |
| 20260831010802 | 83 | 117 | 5.0 | 12.0 | 0.00 | 0.00 | 0.00 | 86 | 1003.7 |
| 20260831010703 | 83 | 100 | 5.0 | 12.0 | 0.00 | 0.00 | 0.00 | 86 | 1003.6 |
| 20260831010600 | 83 | 99 | 6.0 | 12.0 | 0.00 | 0.00 | 0.00 | 86 | 1003.6 |
| 20260831010258 | 83 | 139 | 7.0 | 12.0 | 0.00 | 0.00 | 0.00 | 86 | 1003.5 |
| 20260831010158 | 83 | 99 | 9.0 | 12.0 | 0.00 | 0.00 | 0.00 | 86 | 1003.6 |
| 20260831010101 | 83 | 113 | 8.0 | 11.0 | 0.00 | 0.00 | 0.00 | 86 | 1003.6 |
| 20260831005757 | 83 | 103 | 5.0 | 8.0 | 0.00 | 0.00 | 0.00 | 86 | 1003.6 |
| 20260831005702 | 83 | 126 | 6.0 | 9.0 | 0.00 | 0.00 | 0.00 | 86 | 1003.5 |
| 20260831005601 | 83 | 125 | 6.0 | 9.0 | 0.00 | 0.00 | 0.00 | 86 | 1003.5 |
| 20260831005504 | 83 | 140 | 6.0 | 9.0 | 0.00 | 0.00 | 0.00 | 86 | 1003.6 |
| 20260831005358 | 83 | 96 | 5.0 | 9.0 | 0.00 | 0.00 | 0.00 | 86 | 1003.5 |
| 20260831005302 | 83 | 146 | 5.0 | 9.0 | 0.00 | 0.00 | 0.00 | 86 | 1003.6 |
| 20260831005157 | 83 | 117 | 4.0 | 9.0 | 0.00 | 0.00 | 0.00 | 86 | 1003.5 |
| 20260831005057 | 83 | 115 | 4.0 | 9.0 | 0.00 | 0.00 | 0.00 | 86 | 1003.5 |
| 20260831004901 | 83 | 99 | 6.0 | 9.0 | 0.00 | 0.00 | 0.00 | 86 | 1003.6 |
| 20260831004802 | 83 | 102 | 5.0 | 8.0 | 0.00 | 0.00 | 0.00 | 86 | 1003.5 |
| 20260831004557 | 83 | 153 | 5.0 | 8.0 | 0.00 | 0.00 | 0.00 | 86 | 1003.5 |
| 20260831004502 | 83 | 146 | 4.0 | 8.0 | 0.00 | 0.00 | 0.00 | 86 | 1003.5 |
| 20260831004403 | 83 | 103 | 4.0 | 8.0 | 0.00 | 0.00 | 0.00 | 86 | 1003.5 |
| 20260831004257 | 83 | 110 | 4.0 | 8.0 | 0.00 | 0.00 | 0.00 | 86 | 1003.5 |
| 20260831004201 | 83 | 134 | 4.0 | 8.0 | 0.00 | 0.00 | 0.00 | 86 | 1003.4 |
| 20260831004101 | 83 | 102 | 4.0 | 8.0 | 0.00 | 0.00 | 0.00 | 86 | 1003.5 |
| 20260831004010 | 83 | 120 | 4.0 | 8.0 | 0.00 | 0.00 | 0.00 | 86 | 1003.5 |
| 20260831003900 | 83 | 98 | 3.0 | 8.0 | 0.00 | 0.00 | 0.00 | 86 | 1003.5 |
| 20260831003800 | 82 | 100 | 5.0 | 8.0 | 0.00 | 0.00 | 0.00 | 87 | 1003.5 |
| 20260831003700 | 82 | 100 | 6.0 | 8.0 | 0.00 | 0.00 | 0.00 | 86 | 1003.5 |
| 20260831003600 | 82 | 84 | 6.0 | 8.0 | 0.00 | 0.00 | 0.00 | 87 | 1003.4 |
| 20260831003503 | 82 | 101 | 5.0 | 8.0 | 0.00 | 0.00 | 0.00 | 87 | 1003.4 |
| 20260831003401 | 82 | 121 | 4.0 | 8.0 | 0.00 | 0.00 | 0.00 | 87 | 1003.4 |
| 20260831003304 | 82 | 125 | 3.0 | 8.0 | 0.00 | 0.00 | 0.00 | 87 | 1003.4 |
| 20260831003200 | 82 | 112 | 4.0 | 9.0 | 0.00 | 0.00 | 0.00 | 87 | 1003.4 |
| 20260831003004 | 82 | 136 | 5.0 | 9.0 | 0.00 | 0.00 | 0.00 | 87 | 1003.4 |
| 20260831002900 | 82 | 61 | 5.0 | 9.0 | 0.00 | 0.00 | 0.00 | 87 | 1003.4 |
| 20260831002705 | 82 | 111 | 5.0 | 9.0 | 0.00 | 0.00 | 0.00 | 87 | 1003.3 |
| 20260831002559 | 82 | 91 | 5.0 | 9.0 | 0.00 | 0.00 | 0.00 | 87 | 1003.4 |
| 20260831002505 | 82 | 135 | 5.0 | 9.0 | 0.00 | 0.00 | 0.00 | 87 | 1003.3 |
| 20260831002359 | 82 | 115 | 4.0 | 8.0 | 0.00 | 0.00 | 0.00 | 87 | 1003.3 |
| 20260831002305 | 82 | 104 | 4.0 | 8.0 | 0.00 | 0.00 | 0.00 | 87 | 1003.4 |
| 20260831002157 | 82 | 124 | 3.0 | 8.0 | 0.00 | 0.00 | 0.00 | 88 | 1003.4 |
| 20260831002058 | 82 | 49 | 3.0 | 7.0 | 0.00 | 0.00 | 0.00 | 88 | 1003.4 |
| 20260831002003 | 82 | 34 | 4.0 | 7.0 | 0.00 | 0.00 | 0.00 | 88 | 1003.3 |
| 20260831001859 | 82 | 111 | 4.0 | 7.0 | 0.00 | 0.00 | 0.00 | 88 | 1003.4 |
| 20260831001800 | 82 | 102 | 3.0 | 7.0 | 0.00 | 0.00 | 0.00 | 88 | 1003.4 |
| 20260831001700 | 82 | 139 | 3.0 | 7.0 | 0.00 | 0.00 | 0.00 | 88 | 1003.3 |
| 20260831001557 | 82 | 119 | 3.0 | 7.0 | 0.00 | 0.00 | 0.00 | 88 | 1003.3 |
| 20260831001502 | 82 | 101 | 4.0 | 9.0 | 0.00 | 0.00 | 0.00 | 88 | 1003.3 |
| 20260831001401 | 82 | 128 | 4.0 | 9.0 | 0.00 | 0.00 | 0.00 | 88 | 1003.3 |
| 20260831001258 | 82 | 88 | 4.0 | 9.0 | 0.00 | 0.00 | 0.00 | 88 | 1003.3 |
| 20260831001159 | 82 | 165 | 4.0 | 9.0 | 0.00 | 0.00 | 0.00 | 88 | 1003.3 |
| 20260831001100 | 82 | 136 | 4.0 | 9.0 | 0.00 | 0.00 | 0.00 | 88 | 1003.2 |
| 20260831001003 | 82 | 123 | 4.0 | 9.0 | 0.00 | 0.00 | 0.00 | 88 | 1003.2 |
| 20260831000900 | 82 | 103 | 4.0 | 9.0 | 0.00 | 0.00 | 0.00 | 89 | 1003.3 |
| 20260831000800 | 82 | 133 | 5.0 | 9.0 | 0.00 | 0.00 | 0.00 | 89 | 1003.3 |
| 20260831000700 | 82 | 133 | 5.0 | 9.0 | 0.00 | 0.00 | 0.00 | 89 | 1003.2 |
| 20260831000600 | 82 | 120 | 4.0 | 9.0 | 0.00 | 0.00 | 0.00 | 89 | 1003.2 |
| 20260831000502 | 82 | 132 | 3.0 | 9.0 | 0.00 | 0.00 | 0.00 | 89 | 1003.2 |
| 20260831000402 | 82 | 113 | 4.0 | 9.0 | 0.00 | 0.00 | 0.00 | 89 | 1003.2 |
| 20260831000303 | 82 | 118 | 4.0 | 9.0 | 0.00 | 0.00 | 0.00 | 89 | 1003.1 |
| 20260831000058 | 82 | 115 | 4.0 | 9.0 | 0.00 | 0.00 | 0.00 | 89 | 1003.2 |
| 20260831000003 | 82 | 111 | 5.0 | 9.0 | 0.00 | 0.00 | 0.00 | 89 | 1003.2 |
| 20260830235902 | 82 | 116 | 5.0 | 9.0 | 0.00 | 0.00 | 0.00 | 89 | 1003.2 |
| 20260830235759 | 82 | 123 | 4.0 | 9.0 | 0.00 | 0.00 | 0.00 | 89 | 1003.1 |
| 20260830235601 | 82 | 115 | 4.0 | 9.0 | 0.00 | 0.00 | 0.00 | 89 | 1003.2 |
| 20260830235502 | 82 | 111 | 4.0 | 7.0 | 0.00 | 0.00 | 0.00 | 89 | 1003.1 |
| 20260830235256 | 82 | 92 | 4.0 | 7.0 | 0.00 | 0.00 | 0.00 | 89 | 1003.2 |
| 20260830235158 | 82 | 82 | 3.0 | 7.0 | 0.00 | 0.00 | 0.00 | 89 | 1003.1 |
| 20260830235002 | 82 | 123 | 3.0 | 7.0 | 0.00 | 0.00 | 0.00 | 89 | 1003.2 |
| 20260830234859 | 82 | 118 | 4.0 | 8.0 | 0.00 | 0.00 | 0.00 | 89 | 1003.2 |
| 20260830234800 | 82 | 108 | 4.0 | 9.0 | 0.00 | 0.00 | 0.00 | 89 | 1003.2 |
| 20260830234700 | 82 | 100 | 3.0 | 9.0 | 0.00 | 0.00 | 0.00 | 89 | 1003.2 |
| 20260830234504 | 82 | 45 | 3.0 | 9.0 | 0.00 | 0.00 | 0.00 | 89 | 1003.0 |
| 20260830234400 | 82 | 84 | 4.0 | 9.0 | 0.00 | 0.00 | 0.00 | 89 | 1003.1 |
| 20260830234300 | 82 | 134 | 5.0 | 9.0 | 0.00 | 0.00 | 0.00 | 89 | 1003.1 |
| 20260830234200 | 82 | 96 | 5.0 | 9.0 | 0.00 | 0.00 | 0.00 | 89 | 1003.1 |
| 20260830234100 | 82 | 88 | 6.0 | 9.0 | 0.00 | 0.00 | 0.00 | 89 | 1003.0 |
| 20260830233901 | 82 | 109 | 4.0 | 8.0 | 0.00 | 0.00 | 0.00 | 89 | 1003.1 |
| 20260830233800 | 82 | 94 | 4.0 | 8.0 | 0.00 | 0.00 | 0.00 | 89 | 1003.1 |
| 20260830233601 | 82 | 93 | 4.0 | 8.0 | 0.00 | 0.00 | 0.00 | 89 | 1003.1 |
| 20260830233401 | 83 | 12 | 4.0 | 8.0 | 0.00 | 0.00 | 0.00 | 89 | 1003.1 |
| 20260830233259 | 83 | 111 | 4.0 | 8.0 | 0.00 | 0.00 | 0.00 | 89 | 1003.0 |
| 20260830233202 | 83 | 118 | 4.0 | 8.0 | 0.00 | 0.00 | 0.00 | 89 | 1003.1 |
| 20260830233102 | 83 | 107 | 4.0 | 8.0 | 0.00 | 0.00 | 0.00 | 89 | 1003.1 |
| 20260830233002 | 83 | 175 | 3.0 | 6.0 | 0.00 | 0.00 | 0.00 | 89 | 1003.0 |
| 20260830232901 | 83 | 95 | 4.0 | 6.0 | 0.00 | 0.00 | 0.00 | 89 | 1003.0 |
| 20260830232701 | 83 | 95 | 3.0 | 6.0 | 0.00 | 0.00 | 0.00 | 90 | 1003.1 |
| 20260830232600 | 83 | 126 | 2.0 | 6.0 | 0.00 | 0.00 | 0.00 | 90 | 1003.0 |
| 20260830232502 | 83 | 126 | 3.0 | 6.0 | 0.00 | 0.00 | 0.00 | 90 | 1003.0 |
| 20260830232402 | 83 | 83 | 2.0 | 6.0 | 0.00 | 0.00 | 0.00 | 90 | 1003.0 |
| 20260830232257 | 83 | 64 | 3.0 | 7.0 | 0.00 | 0.00 | 0.00 | 89 | 1003.1 |
| 20260830232159 | 83 | 63 | 2.0 | 7.0 | 0.00 | 0.00 | 0.00 | 89 | 1003.0 |
| 20260830232057 | 83 | 101 | 3.0 | 7.0 | 0.00 | 0.00 | 0.00 | 89 | 1003.1 |
| 20260830232004 | 83 | 112 | 3.0 | 7.0 | 0.00 | 0.00 | 0.00 | 89 | 1003.1 |
| 20260830231900 | 83 | 92 | 3.0 | 7.0 | 0.00 | 0.00 | 0.00 | 89 | 1003.1 |
| 20260830231657 | 83 | 114 | 3.0 | 7.0 | 0.00 | 0.00 | 0.00 | 89 | 1003.1 |
| 20260830231602 | 83 | 74 | 4.0 | 7.0 | 0.00 | 0.00 | 0.00 | 89 | 1003.1 |
| 20260830231500 | 83 | 74 | 4.0 | 7.0 | 0.00 | 0.00 | 0.00 | 89 | 1003.1 |
| 20260830231359 | 83 | 98 | 2.0 | 5.0 | 0.00 | 0.00 | 0.00 | 89 | 1003.1 |
| 20260830231258 | 83 | 97 | 2.0 | 5.0 | 0.00 | 0.00 | 0.00 | 89 | 1003.1 |
| 20260830231200 | 83 | 38 | 2.0 | 6.0 | 0.00 | 0.00 | 0.00 | 89 | 1003.1 |
| 20260830231101 | 83 | 125 | 2.0 | 6.0 | 0.00 | 0.00 | 0.00 | 89 | 1003.2 |
| 20260830231002 | 83 | 137 | 3.0 | 6.0 | 0.00 | 0.00 | 0.00 | 89 | 1003.2 |
| 20260830230859 | 83 | 97 | 3.0 | 6.0 | 0.00 | 0.00 | 0.00 | 89 | 1003.0 |
| 20260830230800 | 83 | 57 | 3.0 | 6.0 | 0.00 | 0.00 | 0.00 | 89 | 1003.0 |
| 20260830230600 | 83 | 87 | 4.0 | 6.0 | 0.00 | 0.00 | 0.00 | 88 | 1002.9 |
| 20260830230502 | 83 | 73 | 4.0 | 6.0 | 0.00 | 0.00 | 0.00 | 88 | 1002.9 |
| 20260830230359 | 83 | 69 | 3.0 | 6.0 | 0.00 | 0.00 | 0.00 | 88 | 1002.9 |
| 20260830230258 | 83 | 69 | 3.0 | 5.0 | 0.00 | 0.00 | 0.00 | 88 | 1002.9 |
| 20260830230201 | 83 | 90 | 2.0 | 4.0 | 0.00 | 0.00 | 0.00 | 88 | 1002.8 |
| 20260830222258 | 83 | 166 | 1.0 | 4.0 | 0.00 | 0.00 | 0.00 | 87 | 1002.9 |
| 20260830222203 | 83 | 166 | 0.0 | 4.0 | 0.00 | 0.00 | 0.00 | 87 | 1003.0 |
| 20260830222101 | 83 | 44 | 1.0 | 4.0 | 0.00 | 0.00 | 0.00 | 87 | 1003.0 |
| 20260830221903 | 83 | 72 | 2.0 | 4.0 | 0.00 | 0.00 | 0.00 | 87 | 1003.0 |
| 20260830221801 | 83 | 66 | 2.0 | 4.0 | 0.00 | 0.00 | 0.00 | 87 | 1003.0 |
| 20260830221703 | 83 | 44 | 2.0 | 4.0 | 0.00 | 0.00 | 0.00 | 87 | 1003.0 |
| 20260830221604 | 83 | 71 | 2.0 | 4.0 | 0.00 | 0.00 | 0.00 | 87 | 1003.0 |
| 20260830221506 | 83 | 5 | 2.0 | 4.0 | 0.00 | 0.00 | 0.00 | 87 | 1003.1 |
| 20260830221359 | 83 | 17 | 2.0 | 4.0 | 0.00 | 0.00 | 0.00 | 87 | 1003.1 |
| 20260830221300 | 83 | 70 | 3.0 | 4.0 | 0.00 | 0.00 | 0.00 | 86 | 1003.0 |
| 20260830221005 | 83 | 15 | 3.0 | 4.0 | 0.00 | 0.00 | 0.00 | 86 | 1003.1 |
| 20260830220902 | 83 | 36 | 2.0 | 3.0 | 0.00 | 0.00 | 0.00 | 86 | 1003.1 |
| 20260830220805 | 83 | 37 | 1.0 | 2.0 | 0.00 | 0.00 | 0.00 | 86 | 1003.0 |
| 20260830220658 | 83 | 40 | 1.0 | 2.0 | 0.00 | 0.00 | 0.00 | 86 | 1003.0 |
| 20260830220602 | 83 | 63 | 0.0 | 2.0 | 0.00 | 0.00 | 0.00 | 86 | 1003.0 |
| 20260830220500 | 83 | 13 | 0.0 | 3.0 | 0.00 | 0.00 | 0.00 | 86 | 1003.1 |
| 20260830220402 | 83 | 13 | 0.0 | 3.0 | 0.00 | 0.00 | 0.00 | 86 | 1003.1 |
| 20260830220200 | 83 | 13 | 0.0 | 3.0 | 0.00 | 0.00 | 0.00 | 86 | 1003.1 |
| 20260830220104 | 83 | 13 | 0.0 | 3.0 | 0.00 | 0.00 | 0.00 | 86 | 1003.1 |
| 20260830220010 | 83 | 13 | 0.0 | 3.0 | 0.00 | 0.00 | 0.00 | 86 | 1003.1 |
| 20260830215858 | 83 | 13 | 0.0 | 4.0 | 0.00 | 0.00 | 0.00 | 86 | 1003.1 |
| 20260830215801 | 83 | 13 | 1.0 | 4.0 | 0.00 | 0.00 | 0.00 | 86 | 1003.2 |
| 20260830215703 | 83 | 13 | 2.0 | 5.0 | 0.00 | 0.00 | 0.00 | 86 | 1003.1 |
| 20260830215505 | 83 | 35 | 0.0 | 5.0 | 0.00 | 0.00 | 0.00 | 86 | 1003.3 |
| 20260830215357 | 83 | 35 | 0.0 | 5.0 | 0.00 | 0.00 | 0.00 | 86 | 1003.2 |
| 20260830215300 | 83 | 35 | 1.0 | 5.0 | 0.00 | 0.00 | 0.00 | 86 | 1003.2 |
| 20260830215202 | 83 | 35 | 2.0 | 5.0 | 0.00 | 0.00 | 0.00 | 86 | 1003.3 |
| 20260830215006 | 83 | 12 | 2.0 | 5.0 | 0.00 | 0.00 | 0.00 | 86 | 1003.2 |
| 20260830214906 | 83 | 51 | 3.0 | 5.0 | 0.00 | 0.00 | 0.00 | 86 | 1003.2 |
| 20260830214800 | 83 | 26 | 2.0 | 5.0 | 0.00 | 0.00 | 0.00 | 86 | 1003.3 |
| 20260830214702 | 83 | 47 | 1.0 | 5.0 | 0.00 | 0.00 | 0.00 | 86 | 1003.2 |
| 20260830214601 | 83 | 5 | 2.0 | 5.0 | 0.00 | 0.00 | 0.00 | 86 | 1003.2 |
| 20260830214505 | 83 | 75 | 3.0 | 5.0 | 0.00 | 0.00 | 0.00 | 86 | 1003.2 |
| 20260830214403 | 83 | 59 | 4.0 | 5.0 | 0.00 | 0.00 | 0.00 | 86 | 1003.3 |
| 20260830214258 | 83 | 46 | 4.0 | 5.0 | 0.00 | 0.00 | 0.00 | 86 | 1003.3 |
| 20260830214201 | 83 | 42 | 4.0 | 5.0 | 0.00 | 0.00 | 0.00 | 86 | 1003.3 |
| 20260830214059 | 83 | 50 | 4.0 | 5.0 | 0.00 | 0.00 | 0.00 | 86 | 1003.3 |
| 20260830213902 | 83 | 54 | 4.0 | 5.0 | 0.00 | 0.00 | 0.00 | 86 | 1003.3 |
| 20260830213800 | 83 | 75 | 3.0 | 5.0 | 0.00 | 0.00 | 0.00 | 86 | 1003.3 |
| 20260830213657 | 83 | 65 | 3.0 | 5.0 | 0.00 | 0.00 | 0.00 | 86 | 1003.3 |
| 20260830213402 | 83 | 62 | 2.0 | 4.0 | 0.00 | 0.00 | 0.00 | 86 | 1003.3 |
| 20260830213301 | 83 | 67 | 3.0 | 4.0 | 0.00 | 0.00 | 0.00 | 86 | 1003.4 |
| 20260830213100 | 83 | 46 | 3.0 | 4.0 | 0.00 | 0.00 | 0.00 | 86 | 1003.4 |
| 20260830213006 | 83 | 62 | 3.0 | 4.0 | 0.00 | 0.00 | 0.00 | 86 | 1003.4 |
| 20260830212900 | 83 | 65 | 3.0 | 5.0 | 0.00 | 0.00 | 0.00 | 86 | 1003.3 |
| 20260830212800 | 83 | 46 | 2.0 | 5.0 | 0.00 | 0.00 | 0.00 | 86 | 1003.3 |
| 20260830212701 | 83 | 49 | 2.0 | 5.0 | 0.00 | 0.00 | 0.00 | 86 | 1003.2 |
| 20260830212600 | 83 | 5 | 2.0 | 5.0 | 0.00 | 0.00 | 0.00 | 86 | 1003.2 |
| 20260830212507 | 83 | 37 | 3.0 | 5.0 | 0.00 | 0.00 | 0.00 | 86 | 1003.2 |
| 20260830212401 | 83 | 51 | 3.0 | 5.0 | 0.00 | 0.00 | 0.00 | 85 | 1003.2 |
| 20260830212300 | 83 | 54 | 3.0 | 6.0 | 0.00 | 0.00 | 0.00 | 85 | 1003.2 |
| 20260830212201 | 83 | 45 | 4.0 | 6.0 | 0.00 | 0.00 | 0.00 | 85 | 1003.2 |
| 20260830212007 | 83 | 27 | 3.0 | 6.0 | 0.00 | 0.00 | 0.00 | 85 | 1003.1 |
| 20260830211902 | 83 | 46 | 4.0 | 6.0 | 0.00 | 0.00 | 0.00 | 85 | 1003.2 |
| 20260830211801 | 83 | 64 | 3.0 | 6.0 | 0.00 | 0.00 | 0.00 | 85 | 1003.2 |
| 20260830211700 | 83 | 65 | 3.0 | 6.0 | 0.00 | 0.00 | 0.00 | 85 | 1003.3 |
| 20260830211604 | 83 | 30 | 4.0 | 6.0 | 0.00 | 0.00 | 0.00 | 85 | 1003.3 |
| 20260830211505 | 83 | 42 | 3.0 | 6.0 | 0.00 | 0.00 | 0.00 | 85 | 1003.4 |
| 20260830211404 | 83 | 49 | 3.0 | 6.0 | 0.00 | 0.00 | 0.00 | 85 | 1003.4 |
| 20260830211312 | 83 | 44 | 3.0 | 5.0 | 0.00 | 0.00 | 0.00 | 85 | 1003.4 |
| 20260830195802 | 84 | 130 | 1.0 | 3.0 | 0.00 | 0.00 | 0.00 | 83 | 1003.5 |
| 20260830195703 | 84 | 72 | 1.0 | 3.0 | 0.00 | 0.00 | 0.00 | 83 | 1003.5 |
| 20260830195600 | 84 | 120 | 1.0 | 3.0 | 0.00 | 0.00 | 0.00 | 83 | 1003.5 |
| 20260830195505 | 84 | 95 | 1.0 | 3.0 | 0.00 | 0.00 | 0.00 | 83 | 1003.5 |
| 20260830195402 | 84 | 322 | 1.0 | 3.0 | 0.00 | 0.00 | 0.00 | 83 | 1003.3 |
| 20260830195305 | 84 | 82 | 0.0 | 3.0 | 0.00 | 0.00 | 0.00 | 83 | 1003.3 |
| 20260830195200 | 84 | 100 | 0.0 | 3.0 | 0.00 | 0.00 | 0.00 | 83 | 1003.3 |
| 20260830195058 | 84 | 36 | 1.0 | 4.0 | 0.00 | 0.00 | 0.00 | 83 | 1003.3 |
| 20260830195019 | 84 | 55 | 1.0 | 4.0 | 0.00 | 0.00 | 0.00 | 83 | 1003.4 |
| 20260830194859 | 84 | 80 | 1.0 | 4.0 | 0.00 | 0.00 | 0.00 | 83 | 1003.3 |
| 20260830194815 | 84 | 52 | 2.0 | 4.0 | 0.00 | 0.00 | 0.00 | 83 | 1003.3 |
| 20260830194714 | 84 | 138 | 1.0 | 4.0 | 0.00 | 0.00 | 0.00 | 83 | 1003.4 |
| 20260830194630 | 84 | 67 | 1.0 | 4.0 | 0.00 | 0.00 | 0.00 | 83 | 1003.4 |
| 20260830194504 | 84 | 78 | 1.0 | 4.0 | 0.00 | 0.00 | 0.00 | 83 | 1003.4 |
| 20260830194402 | 84 | 52 | 1.0 | 4.0 | 0.00 | 0.00 | 0.00 | 83 | 1003.5 |
| 20260830194302 | 84 | 48 | 2.0 | 4.0 | 0.00 | 0.00 | 0.00 | 83 | 1003.4 |